EW0408 Weather Reports


Display with metric or nautical units.
time (UTC)temp
F
wind
direction
speed
MPH
gust
MPH
rain 1hr
in
rain 24hr
in
rain mn
in
humidity
%
barometer
mb
20260505003004 74 59 6.0 11.0 0.00 0.00 0.00 74 1015.2
20260505002004 74 65 4.0 9.0 0.00 0.00 0.00 75 1015.0
20260505001005 74 59 6.0 11.0 0.00 0.00 0.00 74 1015.0
20260505000005 75 57 8.0 15.0 0.00 0.00 0.00 72 1014.9
20260504235004 75 56 10.0 16.0 0.00 0.00 0.00 72 1014.8
20260504234005 75 57 8.0 16.0 0.00 0.00 0.00 72 1014.6
20260504233005 76 56 11.0 18.0 0.00 0.00 0.00 71 1014.6
20260504232005 76 58 7.0 15.0 0.00 0.00 0.00 71 1014.3
20260504231005 76 51 12.0 16.0 0.00 0.00 0.00 72 1014.3
20260504230005 76 57 9.0 16.0 0.00 0.00 0.00 71 1014.4
20260504225004 76 60 7.0 16.0 0.00 0.00 0.00 72 1014.4
20260504224005 77 65 7.0 18.0 0.00 0.00 0.00 71 1014.4
20260504223004 77 69 6.0 17.0 0.00 0.00 0.00 70 1014.2
20260504222004 77 56 10.0 20.0 0.00 0.00 0.00 68 1014.2
20260504221004 78 55 9.0 17.0 0.00 0.00 0.00 69 1014.1
20260504220026 78 57 9.0 19.0 0.00 0.00 0.00 69 1014.1
20260504215004 78 57 8.0 20.0 0.00 0.00 0.00 69 1014.1
20260504214004 79 58 8.0 17.0 0.00 0.00 0.00 68 1014.1
20260504213004 78 57 9.0 15.0 0.00 0.00 0.00 67 1014.1
20260504212004 80 64 6.0 15.0 0.00 0.00 0.00 66 1014.0
20260504211025 79 72 5.0 13.0 0.00 0.00 0.00 67 1014.3
20260504210005 79 57 9.0 17.0 0.00 0.00 0.00 69 1014.2
20260504205005 79 56 11.0 19.0 0.00 0.00 0.00 66 1014.2
20260504204004 79 55 11.0 21.0 0.00 0.00 0.00 67 1014.2
20260504203005 79 58 8.0 20.0 0.00 0.00 0.00 66 1014.3
20260504202025 80 61 8.0 16.0 0.00 0.00 0.00 68 1014.4
20260504200004 79 73 5.0 17.0 0.00 0.00 0.00 67 1014.5
20260504195004 80 53 11.0 18.0 0.00 0.00 0.00 66 1014.6
20260504194004 79 50 13.0 19.0 0.00 0.00 0.00 65 1014.6
20260504193005 80 50 14.0 19.0 0.00 0.00 0.00 66 1014.7
20260504192005 82 75 4.0 13.0 0.00 0.00 0.00 63 1014.9
20260504191004 81 50 9.0 15.0 0.00 0.00 0.00 65 1015.2
20260504190004 79 50 14.0 19.0 0.00 0.00 0.00 65 1015.4
20260504185004 79 56 9.0 19.0 0.00 0.00 0.00 66 1015.4
20260504184004 79 63 6.0 14.0 0.00 0.00 0.00 66 1015.5
20260504183026 79 51 11.0 18.0 0.00 0.00 0.00 65 1015.8
20260504182004 80 49 9.0 14.0 0.00 0.00 0.00 66 1015.7
20260504181025 79 50 11.0 17.0 0.00 0.00 0.00 66 1016.0
20260504180004 79 56 10.0 19.0 0.00 0.00 0.00 66 1016.0
20260504175005 79 53 10.0 16.0 0.00 0.00 0.00 66 1016.1
20260504174004 79 56 10.0 17.0 0.00 0.00 0.00 66 1016.2
20260504173025 79 54 10.0 18.0 0.00 0.00 0.00 66 1016.3
20260504172005 79 48 11.0 17.0 0.00 0.00 0.00 67 1016.2
20260504171005 79 53 12.0 18.0 0.00 0.00 0.00 66 1016.3
20260504151004 77 48 11.0 18.0 0.00 0.00 0.00 66 1017.1
20260504141025 76 40 11.0 21.0 0.00 0.00 0.00 64 1016.8
20260504082004 69 18 6.0 12.0 0.00 0.35 0.00 82 1015.4
20260504081005 69 5 5.0 10.0 0.00 0.41 0.00 81 1015.5
20260504050025 70 34 5.0 9.0 0.00 0.72 0.00 81 1016.4
20260504045004 70 42 5.0 9.0 0.00 0.72 0.00 81 1016.4
20260504044005 70 32 4.0 9.0 0.00 0.72 0.00 81 1016.6
20260504043004 70 38 4.0 10.0 0.00 0.72 0.00 81 1016.7
20260504042004 70 0 0.0 0.0 0.00 0.72 0.00 82 1016.6
20260504041004 70 0 0.0 0.0 0.00 0.72 0.00 82 1016.9
20260504040004 70 0 0.0 0.0 0.00 0.72 0.00 82 1017.1
20260504035004 70 0 0.0 0.0 0.00 0.72 0.72 81 1016.9
20260504034004 70 0 0.0 0.0 0.00 0.72 0.72 81 1017.0
20260504033004 70 0 0.0 0.0 0.00 0.72 0.72 81 1016.9
20260504032025 70 0 0.0 0.0 0.00 0.72 0.72 81 1017.0
20260504031004 70 0 0.0 0.0 0.00 0.72 0.72 81 1016.9
20260504030026 71 55 0.0 1.0 0.00 0.72 0.72 81 1016.9
20260504025004 71 0 0.0 0.0 0.00 0.72 0.72 81 1016.9
20260504024025 71 0 0.0 0.0 0.00 0.72 0.72 81 1017.0
20260504023004 71 0 0.0 0.0 0.00 0.72 0.72 81 1016.8
20260504022004 71 0 0.0 0.0 0.00 0.72 0.72 80 1016.7
20260504021025 71 50 0.0 1.0 0.00 0.72 0.72 80 1016.6
20260504020004 71 0 0.0 0.0 0.00 0.75 0.72 80 1016.5
20260504015004 71 0 0.0 0.0 0.00 0.75 0.72 80 1016.7
20260504014004 71 0 0.0 0.0 0.00 0.75 0.72 79 1016.6
20260504013004 72 0 0.0 0.0 0.00 0.75 0.72 79 1016.4
20260504012004 72 0 0.0 0.0 0.00 0.75 0.72 80 1016.3
20260504011004 72 49 5.0 11.0 0.00 0.75 0.72 79 1016.2
20260504010004 72 44 6.0 9.0 0.00 0.76 0.72 79 1016.1
20260504005004 72 47 7.0 10.0 0.00 0.76 0.72 80 1016.1
20260504004004 72 50 4.0 8.0 0.00 0.76 0.72 79 1016.0